Regional Weather Roundup
Issued by NWS Mobile, AL

Home | Current Version | Previous Version | Text Only | Print | Product List | Glossary On
Versions: 1 2 3 4 5 6 7 8 9 10 11 12 13 14 15 16 17 18 19 20 21 22 23 24 25 26 27
000
ASUS44 KMOB 310413
RWRMOB
REGIONAL WEATHER ROUNDUP
NATIONAL WEATHER SERVICE MOBILE AL
1100 PM CDT TUE AUG 30 2016

NOTE: "FAIR" INDICATES FEW OR NO CLOUDS BELOW 12,000 FEET WITH NO
      SIGNIFICANT WEATHER AND/OR OBSTRUCTIONS TO VISIBILITY.

  * THESE STATIONS ARE PART OF THE UNIVERSITY OF SOUTH ALABAMA
    MESONET AND ARE NOT UNDER NWS OR FAA QUALITY CONTROL.

ALZ061>064-310500-
COASTAL ALABAMA

CITY           SKY/WX    TMP DP  RH WIND       PRES   REMARKS
MOBILE REG APT CLEAR     77  72  84 N5        29.93S
BROOKLEY FIELD CLEAR     84  75  74 NE8       29.92S
USA CAMPUS*    NOT AVBL
DOG RIVER*     NOT AVBL


CITY           SKY/WX    TMP DP  RH WIND       PRES   REMARKS
MOUNT VERNON*  NOT AVBL
SARALAND*      NOT AVBL
BAY MINETTE*   NOT AVBL
LOXLEY*        NOT AVBL
ROBERTSDALE*   NOT AVBL
FAIRHOPE*      NOT AVBL
ELBERTA*       NOT AVBL
FOLEY*         NOT AVBL
GRAND BAY*     NOT AVBL
DAUPHIN ISLND* NOT AVBL
BON SCOUR NWR* NOT AVBL
GULF SHORES    CLEAR     78  75  91 CALM      29.90R

$$

ALZ051>060-310500-
INTERIOR SOUTHWEST AND SOUTH CENTRAL ALABAMA

CITY           SKY/WX    TMP DP  RH WIND       PRES   REMARKS
GREENVILLE     MOCLDY    79  71  76 CALM      29.95S
EVERGREEN      CLEAR     77  72  84 NE6       29.94S
CASTLEBERRY*   NOT AVBL
ATMORE*        NOT AVBL
DIXIE*         NOT AVBL
ANDALUSIA/OPP  CLEAR     81  70  69 E3        29.94S
ANDALUSIA*     NOT AVBL
FLORALA APT    PTCLDY    78  70  76 E6        29.95S
FLORALA*       NOT AVBL

$$

FLZ001>006-310500-
WESTERN FLORIDA PANHANDLE

CITY           SKY/WX    TMP DP  RH WIND       PRES   REMARKS
PENSACOLA      CLEAR     84  70  62 N5        29.90S
NAS PENSACOLA  CLEAR     79  72  79 N5        29.89S
MILTON         LGT RAIN  79  72  79 NE6       29.92S
WHTNG S FIELD  CLEAR     84  73  69 NE8       29.91S


CITY           SKY/WX    TMP DP  RH WIND       PRES   REMARKS
WALNUT HILL*   NOT AVBL
JAY*           NOT AVBL
DUKE FIELD     CLEAR     79  71  75 NE5       29.91R
CRESTVIEW      CLEAR     78  71  79 CALM      29.93R
VALPARAISO     CLEAR     84  70  63 NE12      29.90S
DESTIN         CLEAR     86  73  65 NE8       29.90R

$$

MSZ076-079-310500-
INTERIOR SOUTHEAST MISSISSIPPI

CITY           SKY/WX    TMP DP  RH WIND       PRES   REMARKS
LEAKESVILLE*   NOT AVBL
AGRICOLA*      NOT AVBL

$$

MARINE OBSERVATIONS

STATION/POSITION TIME  TEMP    WIND        PRES    WAVE
                       AIR SEA DIR/SP/G            HT/PER
                 (UTC) (F)     (DEG/KT/KT) (MB)    (FT/S)
PASCAGOULA       0300   84     360/  4/  5 1012.4R
PETIT BOIS ISLND 0300   85      40/  6/  7 1013.0R
GRAND BAY        0200   85      90/  3     1013.0S
KATRINA CUT      0300   86      40/  6     1013.2R
CEDAR POINT      0300   82     360/  5     1012.5R
E DAUPHIN ISLAND 0300   86      20/  7/  8 1012.1R
MIDDLE BAY LIGHT 0300   86      40/ 10     1012.2S
USCG MOBILE BAY  0300   85 86   40/  4/  6 1013.3R
STATE DOCKS      0300   85 89              1012.7R
MEAHER PARK      0300   82      20/  3     1012.5R
WEEKS BAY        0200   79                   N/A
FORT MORGAN      0300   85      50/  8/  9 1011.8R
12 S ORANGE BCH  0350   86 86   40/  8/  8 1012.1R   3/ 7
PENSACOLA BAY    0300   86 87   40/  5/  7 1012.5R
64 S DAUPHIN ISL 0300   85 86   80/ 14/ 17 1011.5R
67 S FORT MORGAN 0330   83      70/ 17     1011.9R

$$

SELECTED LOCATIONS ACROSS THE REGION

CITY           SKY/WX    TMP DP  RH WIND       PRES   REMARKS
NEW ORLEANS    PTCLDY    86  75  69 E3        29.90S HX  95
GULFPORT       CLEAR     80  78  94 CALM      29.90S
PASCAGOULA AP  CLEAR     77  77 100 CALM      29.91S
PASCAGOULA*    NOT AVBL
HATTIESBURG    CLEAR     78  75  90 CALM      29.94S
LAUREL         CLEAR     70  70 100 N5        29.95S
MERIDIAN       CLEAR     77  72  84 CALM      29.96R
JACKSON        CLEAR     77  74  90 NE3       29.96R
MONTGOMERY     PTCLDY    80  71  74 E6        29.95S
TROY           CLEAR     77  72  84 E5        29.97R
KINSTON*       NOT AVBL
GENEVA*        NOT AVBL
ASHFORD*       NOT AVBL
DOTHAN         CLEAR     78  73  84 E5        29.98S
PANAMA CITY    CLEAR     79  72  79 NE5       29.89S

$$





USA.gov is the U.S. government's official web portal to all federal, state and local government web resources and services.